TimeCDT,TemperatureF,Dew PointF,Humidity,Sea Level PressureIn,VisibilityMPH,Wind Direction,Wind SpeedMPH,Gust SpeedMPH,PrecipitationIn,Events,Conditions,WindDirDegrees,DateUTC
12:53 AM,69.1,64.9,87,30.03,10.0,South,10.4,-,N/A,,Clear,170,2012-03-14 05:53:00
1:53 AM,69.1,64.9,87,30.02,10.0,South,13.8,-,N/A,,Scattered Clouds,180,2012-03-14 06:53:00
2:53 AM,66.2,64.4,94,30.03,10.0,South,12.7,-,N/A,,Partly Cloudy,180,2012-03-14 07:53:00
3:18 AM,66.2,62.6,88,30.03,10.0,South,12.7,-,N/A,,Mostly Cloudy,190,2012-03-14 08:18:00
3:53 AM,66.2,62.6,88,30.03,10.0,South,17.3,23.0,N/A,,Mostly Cloudy,180,2012-03-14 08:53:00
4:34 AM,66.2,62.6,88,30.03,10.0,South,15.0,-,N/A,,Mostly Cloudy,180,2012-03-14 09:34:00
4:53 AM,66.9,62.1,84,30.01,10.0,South,16.1,25.3,N/A,,Mostly Cloudy,180,2012-03-14 09:53:00
5:53 AM,68.0,62.1,81,30.02,10.0,South,13.8,25.3,N/A,,Mostly Cloudy,180,2012-03-14 10:53:00
6:53 AM,68.0,60.8,78,30.06,10.0,South,12.7,-,N/A,,Overcast,180,2012-03-14 11:53:00
7:53 AM,68.0,61.0,78,30.06,10.0,South,19.6,26.5,N/A,,Overcast,190,2012-03-14 12:53:00
8:53 AM,68.0,62.1,81,30.08,10.0,South,13.8,-,N/A,,Overcast,180,2012-03-14 13:53:00
9:17 AM,68.0,62.6,83,30.10,10.0,South,12.7,-,N/A,,Mostly Cloudy,170,2012-03-14 14:17:00
9:53 AM,70.0,63.0,78,30.10,10.0,South,9.2,-,N/A,,Mostly Cloudy,180,2012-03-14 14:53:00
10:32 AM,71.6,62.6,73,30.12,10.0,South,18.4,23.0,N/A,,Overcast,180,2012-03-14 15:32:00
10:41 AM,71.6,62.6,73,30.12,10.0,South,17.3,24.2,N/A,,Overcast,170,2012-03-14 15:41:00
10:53 AM,71.1,64.0,78,30.11,10.0,South,12.7,21.9,N/A,,Overcast,170,2012-03-14 15:53:00
11:53 AM,73.9,64.0,71,30.10,10.0,South,16.1,21.9,N/A,,Mostly Cloudy,190,2012-03-14 16:53:00
12:53 PM,73.9,63.0,68,30.10,10.0,South,18.4,-,N/A,,Mostly Cloudy,180,2012-03-14 17:53:00
1:53 PM,73.9,63.0,68,30.08,10.0,South,19.6,-,N/A,,Mostly Cloudy,190,2012-03-14 18:53:00
2:53 PM,75.0,64.0,69,30.05,10.0,South,15.0,-,N/A,,Overcast,180,2012-03-14 19:53:00
3:53 PM,75.0,64.0,69,30.02,10.0,South,18.4,24.2,N/A,,Overcast,180,2012-03-14 20:53:00
4:53 PM,75.9,64.9,69,30.02,10.0,South,13.8,23.0,N/A,,Overcast,170,2012-03-14 21:53:00
5:53 PM,75.0,64.9,71,30.02,10.0,South,17.3,-,N/A,,Overcast,180,2012-03-14 22:53:00
6:53 PM,75.0,64.0,69,30.02,10.0,South,12.7,-,N/A,,Mostly Cloudy,180,2012-03-14 23:53:00
6:57 PM,75.2,64.4,69,30.04,10.0,South,10.4,-,N/A,,Mostly Cloudy,180,2012-03-14 23:57:00
7:53 PM,73.9,64.0,71,30.02,10.0,South,11.5,-,N/A,,Overcast,170,2012-03-15 00:53:00
8:53 PM,73.0,64.9,76,30.03,10.0,South,10.4,-,N/A,,Overcast,170,2012-03-15 01:53:00
9:53 PM,72.0,64.9,78,30.04,10.0,South,11.5,-,N/A,,Mostly Cloudy,170,2012-03-15 02:53:00
10:53 PM,71.6,64.4,78,30.06,10.0,South,10.4,-,N/A,,Overcast,170,2012-03-15 03:53:00
11:53 PM,71.1,64.9,81,30.04,10.0,South,11.5,-,N/A,,Overcast,170,2012-03-15 04:53:00